STARLINK-33724

Satellite information

Favourite Embed

Satellite Type and Status

PAYLOADDECAYED

Key statistics

Satellite STARLINK-33724 at a glance.

Uptime

48

Days in orbit

Revolutions

≈ 16.3

Per day

Orbit

LEO

Low Earth Orbit

Inclination

43.0

Latest

Satellite identification and parameters

Extended collection of information and parameters for STARLINK-33724.

Object identification

Identified? True

Debris? False

Object name: STARLINK-33724

International designator: 2025-076F

Object number (NORAD): 63574

Object ID (CCSDS): 63574

Country: UNITED STATES OF AMERICA (US)

Current information (Y/N): Y

RCS size: LARGE

Orbital parameters

Decay date: June 1, 2025

Period: 88.589 minutes

Inclination: 42.9906 deg

SMA: 6582.864 km

Apoapsis: 209.632 km

Periapsis: 199.827 km

RAAN: 103.8065 deg

Eccentricy: 0.0007447

Argument of periapsis: 231.3569 deg

Mean anomaly: 261.7491 deg

Mean motion: 16.25475365 rev/day

Mean motion (dot): 0.1810454 rev/day2

B* drag term: 0.0056612 1/REarth

Two-line elements (TLE)

Creation date: June 1, 2025, 12:16 p.m.

Reference frame: TEME

Reference center: EARTH

Epoch: June 1, 2025, 8:09 a.m. UTC

TLE line 0: 0 STARLINK-33724

TLE line 1: 1 63574U 25076F 25152.34017476 .18104540 89433-5 56612-2 0 9999

TLE line 2: 2 63574 42.9906 103.8065 0007447 231.3569 261.7491 16.25475365 8687

Live tracking on map

Satellite STARLINK-33724 has decayed and is no longer in orbit. No tracking available.

In-orbit conjunctions

Satellite STARLINK-33724 has decayed and is no longer in orbit. No conjunctions available.

Associated space launch

A batch of 27 satellites for the Starlink mega-constellation - SpaceX's project for space-based Internet communication system.

STARLINK-33724 was lifted into orbit during the mission ‘Falcon 9 Block 5 | Starlink Group 6-73’, on board a Falcon 9 space rocket.

The launch took place on April 14, 2025, 4 a.m. from Space Launch Complex 40.

For more information about the launch, click the button.

Launch to space Falcon 9 Block 5 | Starlink Group 6-73
Falcon 9 Block 5 | Starlink Group 6-73

Agency: SpaceX

Status: Launch Successful

Launch date: April 14, 2025, 4 a.m. UTC

Rocket: Falcon 9

Launch pad: Space Launch Complex 40

Location: Cape Canaveral SFS, FL, USA

...

Latest news about this satellite

News about space launch
Live coverage: SpaceX to launch 27 Starlink satellites on Falcon 9 rocket from Cape Canaveral

The Starlink 6-73 mission features a Falcon booster, tail number 1067, which will launch for a record-setting 27th time. Liftoff from pad 40 at Cape Canaveral Space Force Station is targeting 10:34 p.m. EDT (0234 UTC).


Newsletter sign-up

Weekly statistics, charts and insights to help you stay on top of the space industry.